SP8AQK-13 Weather Reports


Display with metric or nautical units.
time (UTC)temp
F
wind
direction
speed
MPH
gust
MPH
rain 1hr
in
rain 24hr
in
rain mn
in
humidity
%
barometer
mb
20260506220309 58 0.0 0.0 0.00 0.00 0.00 77 1010.0
20260506214309 60 0.0 0.0 0.00 0.00 0.00 70 1009.7
20260506212308 61 0.0 0.0 0.00 0.00 0.00 67 1009.7
20260506210307 62 0.0 0.0 0.00 0.00 0.00 62 1009.7
20260506204306 63 0.0 0.0 0.00 0.00 0.00 60 1009.5
20260506202306 63 0.0 0.0 0.00 0.00 0.00 60 1009.3
20260506200305 63 0.0 0.0 0.00 0.00 0.00 59 1009.3
20260506194304 65 0.0 0.0 0.00 0.00 0.00 56 1009.3
20260506192305 66 0.0 0.0 0.00 0.00 0.00 54 1009.2
20260506190303 67 0.0 0.0 0.00 0.00 0.00 51 1009.1
20260506184302 68 0.0 0.0 0.00 0.00 0.00 50 1009.0
20260506182301 68 0.0 0.0 0.00 0.00 0.00 49 1008.9
20260506180301 70 0.0 0.0 0.00 0.00 0.00 48 1008.5
20260506174300 71 0.0 0.0 0.00 0.00 0.00 46 1008.4
20260506172259 72 0.0 0.0 0.00 0.00 0.00 46 1008.3
20260506170258 73 0.0 0.0 0.00 0.00 0.00 44 1008.1
20260506164258 74 0.0 0.0 0.00 0.00 0.00 42 1008.0
20260506162257 75 0.0 0.0 0.00 0.00 0.00 41 1008.1
20260506160256 75 0.0 0.0 0.00 0.00 0.00 39 1008.0
20260506154255 76 0.0 0.0 0.00 0.00 0.00 39 1008.3
20260506152255 76 0.0 0.0 0.00 0.00 0.00 38 1008.2
20260506150302 77 0.0 0.0 0.00 0.00 0.00 38 1008.2
20260506144253 77 0.0 0.0 0.00 0.00 0.00 38 1008.1
20260506142252 77 0.0 0.0 0.00 0.00 0.00 38 1008.2
20260506140252 79 0.0 0.0 0.00 0.00 0.00 37 1008.0
20260506134251 79 0.0 0.0 0.00 0.00 0.00 37 1008.1
20260506132250 79 0.0 0.0 0.00 0.00 0.00 38 1008.3
20260506124249 80 0.0 0.0 0.00 0.00 0.00 37 1008.3
20260506122248 79 0.0 0.0 0.00 0.00 0.00 37 1008.5
20260506120247 80 0.0 0.0 0.00 0.00 0.00 37 1008.5
20260506114247 79 0.0 0.0 0.00 0.00 0.00 38 1008.6
20260506112246 79 0.0 0.0 0.00 0.00 0.00 36 1008.6
20260506110245 79 0.0 0.0 0.00 0.00 0.00 37 1008.6
20260506104244 78 0.0 0.0 0.00 0.00 0.00 36 1008.7
20260506102243 78 0.0 0.0 0.00 0.00 0.00 36 1008.7
20260506094242 75 0.0 0.0 0.00 0.00 0.00 38 1008.8
20260506090241 74 0.0 0.0 0.00 0.00 0.00 40 1008.6
20260506084240 73 0.0 0.0 0.00 0.00 0.00 41 1008.7
20260506082239 72 0.0 0.0 0.00 0.00 0.00 42 1008.6
20260506080238 73 0.0 0.0 0.00 0.00 0.00 42 1008.5
20260506072237 71 0.0 0.0 0.00 0.00 0.00 43 1008.7
20260506070236 71 0.0 0.0 0.00 0.00 0.00 45 1008.5
20260506062235 73 0.0 0.0 0.00 0.00 0.00 42 1008.4
20260506060234 71 0.0 0.0 0.00 0.00 0.00 42 1008.7
20260506050232 64 0.0 0.0 0.00 0.00 0.00 49 1009.3
20260506044231 60 0.0 0.0 0.00 0.00 0.00 52 1009.5
20260506042230 59 0.0 0.0 0.00 0.00 0.00 53 1009.7
20260506040230 57 0.0 0.0 0.00 0.00 0.00 52 1010.0
20260506034229 57 0.0 0.0 0.00 0.00 0.00 51 1009.7
20260506032228 57 0.0 0.0 0.00 0.00 0.00 50 1009.8
20260506030228 56 0.0 0.0 0.00 0.00 0.00 52 1010.1
20260506024227 55 0.0 0.0 0.00 0.00 0.00 52 1010.0
20260506022226 52 0.0 0.0 0.00 0.00 0.00 58 1010.2
20260506020225 52 0.0 0.0 0.00 0.00 0.00 61 1010.3
20260506014225 52 0.0 0.0 0.00 0.00 0.00 59 1010.2
20260506012224 52 0.0 0.0 0.00 0.00 0.00 59 1010.2
20260506010223 52 0.0 0.0 0.00 0.00 0.00 62 1010.3
20260506004222 54 0.0 0.0 0.00 0.00 0.00 56 1010.2
20260506002222 57 0.0 0.0 0.00 0.00 0.00 49 1009.9
20260506000221 59 0.0 0.0 0.00 0.00 0.00 46 1009.8
20260505234220 61 0.0 0.0 0.00 0.00 0.00 42 1009.5